Location: Erdweis
(48.5167°N, 15.3500°E)
Time: 10:34:49
(UTC+00:00)

X-37B - Pass Details

Date: 30 November 2020
Orbit: 384 x 390 km, 45.0° (Epoch: 02 January)

Event Time Altitude Azimuth Distance (km) Brightness Sun altitude
Rises 16:47:02 0° 235° (SW) 2,258 5.8 -16.1°
Reaches altitude 10° 16:49:14 10° 224° (SW) 1,408 4.3 -16.4°
Maximum altitude 16:52:01 28° 162° (SSE) 757 2.0 -16.9°
Enters shadow 16:52:35 26° 142° (SE) 796 1.9 -17.0°
